www.pogodaiklimat.ru

Погода и климат >> Архив погоды >> Россия >> Бурятия >> Кяхта


АРХИВ ПОГОДЫ в Кяхте

Время (UTC), дата Ветер
(напр.,м/с)
 
Видим.   Явления Облачность Т
(С)
Тd
(С)
f
(%)
Тe
(С)
Тes
(С)
Комфортность P
(гПа)
Po
(гПа)
Тmin
(С)
Tmax
(С)
R
(мм)
R24
(мм)
S
(см)
09 18.05 СЗ 5-13
{13}
50 км 9/6 600 м
[Cb cap Ac As]
+8.4 -11.6 23 +6 +6 1019.0 925.8
12 18.05 С 4
{13}
50 км 9/8 600 м
[Cb cap Ac As]
+6.6 -9.4 31 +4 +4 1020.5 926.7 +10.7
15 18.05 С 1 н/о 10/3 1000 м
[Sc diur, vesp Ac As]
+3.7 -10.0 36 +3 +3 1022.2 927.3
18 18.05 С 1 н/о 10/3 1000 м
[Sc diur, vesp Ac As]
+2.9 -9.7 39 +2 +2 1022.0 926.8
21 18.05 СЗ 2 н/о 10/0
[Ac As]
+3.2 -11.6 33 +1 +1 1021.9 926.8
00 19.05 СЗ 3 50 км 8/0 2000 м
[Ac trans Cc]
+7.6 -10.7 26 +6 +8 1021.2 927.6 +1.3
03 19.05 СЗ 4
{12}
50 км 6/6 1000 м
[Cu hum]
+11.1 -13.1 17 +10 +13 1019.6 927.2
06 19.05 З 3
{12}
50 км ясно +13.7 -14.3 13 +13 +26 опасность
простуды
1017.2 925.9
09 19.05 СЗ 2
{10}
50 км 1/0
[Ci fib]
+14.6 -15.6 11 +15 +22 1015.6 924.7
12 19.05 С 2 50 км ясно +12.3 -15.4 13 +12 +12 1015.8 924.2 +15.0
15 19.05 штиль 0 н/о ясно +4.2 -13.2 27 +4 +4 1019.1 924.6
18 19.05 штиль 0 н/о ясно +1.5 -13.4 32 +2 +2 1019.5 924.1
21 19.05 С 1 н/о ясно +0.6 -13.5 34 -0 -0 1018.7 923.1
00 20.05 ЮВ 1 50 км ясно +9.3 -12.6 20 +10 +15 1016.0 923.4 +0.6
03 20.05 ЮВ 2 50 км 1/0
[Ci fib]
+15.3 -12.1 14 +15 +29 опасность
простуды
1013.1 922.6
06 20.05 СЗ 3 50 км 1/0
[Ci fib]
+20.3 -10.1 12 +20 +33 опасность
простуды
1009.4 920.7
09 20.05 СЗ 3 50 км 1/0
[Ci fib]
+21.6 -10.2 11 +20 +26 1007.3 919.1
12 20.05 СВ 3 50 км 4/0
[Cs]
+19.3 -9.9 13 +19 +19 1007.3 918.5 +21.8
15 20.05 С 1 н/о 3/0
[Ci fib]
+10.2 -9.0 25 +11 +11 1011.3 919.4
18 20.05 С 1 н/о 3/0
[Ci fib]
+8.5 -8.6 29 +9 +9 1011.6 919.2
21 20.05 штиль 0 50 км 6/0
[Ci fib]
+8.0 -9.0 29 +8 +8 1010.7 918.2
00 21.05 ЮВ 1 50 км 9/0 2000 м
[Cs]
+15.5 -8.1 19 +16 +20 1008.5 918.5 +6.9
03 21.05 Ю 3 50 км 4/0
[Ci fib]
+20.0 -8.4 14 +20 +31 1006.0 917.5
06 21.05 ЮВ 3 50 км 6/0
[Ac lent Ci fib]
+25.1 -7.5 11 +22 +32 комфорт 1001.4 914.7
09 21.05 Ю 2 50 км 8/0
[Ac lent Cs]
+25.9 -6.9 11 +23 +28 комфорт 998.4 912.3
12 21.05 ЮВ 3 50 км 10/0 2000 м
[Ac trans Ci fib]
+24.4 -6.9 12 +22 +22 комфорт 997.3 910.8 +26.7
15 21.05 штиль 0 н/о 6/0
[Ci fib]
+14.8 -5.1 25 +15 +15 1000.1 910.6
18 21.05 штиль 0 н/о 10/0
[Ci fib]
+13.4 -5.3 27 +13 +13 999.5 909.7
21 21.05 С 1 50 км 10/0
[Ac trans Ci fib]
+12.5 -5.1 29 +13 +13 999.8 909.7
00 22.05 Ю 1 50 км 8/0
[Ci fib]
+17.5 -3.9 23 +19 +23 997.9 909.5 +10.4
03 22.05 Ю 3 50 км 8/0
[Cs]
+26.0 -2.7 15 +24 +34 комфорт 993.8 908.2
06 22.05 СЗ 3 50 км 4/1 600 м
[Cu hum Ci fib]
+30.2 -3.5 11 +27 +38 жарко 991.1 906.8
09 22.05 С 6-11
{11}
50 км 8/1 600 м
[Cu hum Ac As Cs]
+28.0 -2.0 14 +25 +27 комфорт 991.0 906.1
12 22.05 С 4
{13}
50 км 9/6 600 м
[Cb cap Ac As Cs]
+23.1 -0.0 22 +22 +22 комфорт 994.1 907.7 +30.7
15 22.05 С 4
{12}
н/о 9/6 600 м
[Cb cap Ac As Cs]
+19.5 +1.9 31 +20 +20 998.8 910.9
18 22.05 СЗ 2 н/о 4/1 600 м
[Sc Cs]
+16.7 +3.4 41 +17 +17 999.1 910.5
21 22.05 С 1 50 км 4/3 600 м
[Sc Ac As Ci fib]
+16.7 +4.3 44 +18 +18 999.8 909.7
00 23.05 В 3 50 км 9/0
[Cs]
+18.8 +2.6 34 +19 +22 995.7 908.0 +11.9
03 23.05 Ю 3 50 км 10/6 600 м
[Cb cap Ac trans Ci fib]
+22.3 +1.9 26 +22 +24 комфорт 992.7 906.2
06 23.05 ЮЗ 3 50 км 10/3 600 м
[Sc Ac As Cs]
+26.5 +1.7 20 +25 +30 комфорт 989.5 904.4
09 23.05 С 8-15
{15}
50 км 10/8 600 м
[Cb cap Ac As Cs]
+24.6 +3.3 25 +24 +24 комфорт 990.7 905.0
12 23.05 С 10-21
{21}
50 км {гроза} 10/8 600 м
[Cb cap Ci fib]
+13.3 +3.7 52 +10 +10 1001.5 911.7 +27.4 2
15 23.05 С 4
{21}
н/о {ливн. осадки} 10/8 600 м
[Cb cap Ac As]
+9.2 +3.0 65 +7 +7 1009.2 917.4
18 23.05 С 4
{11}
н/о {ливн. осадки} 10/3 600 м
[Sc Ac As Cs]
+7.7 +0.9 62 +5 +5 1012.2 919.6
21 23.05 С 4 50 км 10/0
[Ac As Cs]
+6.8 0.0 62 +4 +4 1012.8 919.9
00 24.05 С 3 50 км 10/4 600 м
[Cb cap Ac As Cs]
+7.7 +0.6 61 +5 +6 1014.1 921.3 +6.7 0.1
03 24.05 С 4 50 км 10/3 600 м
[Cu hum Ac trans Cs]
+11.2 -0.6 44 +9 +13 1012.7 921.1
06 24.05 СВ 4
{10}
50 км 9/3 600 м
[Cu hum Ac trans Cs]
+14.0 -2.9 31 +13 +17 1010.4 919.9
09 24.05 С 4
{10}
50 км 10/4 1000 м
[Cu Sc Ac As Cs]
+13.6 -5.1 27 +12 +14 1010.3 919.6
12 24.05 С 4
{10}
50 км 9/3 1000 м
[Sc diur, vesp Ac As Cs]
+12.2 -4.9 30 +11 +11 1011.0 919.8 +14.2
15 24.05 С 2 н/о 3/0
[Ac As Cs]
+7.3 -5.1 41 +6 +6 1013.5 920.6
18 24.05 С 3 н/о 4/1 1000 м
[Sc Ac As Cs]
+8.1 -3.7 43 +6 +6 1014.6 921.9
21 24.05 СЗ 3 50 км 8/3 1000 м
[Sc Ac trans Cs]
+7.0 -3.3 48 +5 +5 1016.3 923.1
00 25.05 С 4 50 км 8/1 1000 м
[Sc Ac trans Cs]
+8.6 -1.8 48 +6 +8 1018.5 925.5 +6.7
03 25.05 С 6-10
{13}
50 км 10/6 1000 м
[Cu hum Ci fib]
+13.1 -5.0 28 +11 +13 1017.8 926.3
06 25.05 С 5
{11}
50 км 10/6 1000 м
[Cu med, cong Ci]
+14.9 -5.6 24 +14 +16 1016.8 925.9

 

Местоположение метеостанции Кяхта (Бурятия, Россия): широта 50.37 долгота 106.40 высота над уровнем моря 797 м.

В архиве по умолчанию представлена погода в Кяхте за последнюю неделю. Архивные данные за месяц целиком и за предыдущие месяцы, начиная с января 2011 года, Вы можете получить, выбрав интересующий диапазон дат из раскрывающегося списка и нажав кнопку "Ввод!".


*Определитесь, кто Вы:
робот инопланетянин человек

Внимание! Время в таблицах - всемирное. Для получения местного времени необходимо прибавить поправку, которая равна 8 ч.

Смотрите также архив погоды в соседних городах и на ближайших метеорологических станциях:

Погода в Бичуре (Бурятия, Россия) (82 км)
Погода в Новоселенгинске (Бурятия, Россия) (82 км)
Погода в Петропавловке (Бурятия, Россия) (83 км)
Погода в Улыгайин Дуганг (Монголия) (112 км)
Погода в Торее (Бурятия, Россия) (113 км)
Погода в Хадатыне (Монголия) (117 км)
Погода в Мухоршибири (Бурятия, Россия) (123 км)
Погода в Бабушкине (Бурятия, Россия) (154 км)
Погода в Танхое (Бурятия, Россия) (160 км)
Погода в Баруунхараа (Монголия) (163 км)

Пояснения к столбцам:

Ветер - указаны скорость ветра в м/с - средняя за 10 мин, порывы в срок и между сроками (в фигурных скобках) и направление, откуда дует ветер: С - северный, СВ - северо-восточный, В - восточный, ЮВ - юго-восточный, Ю - южный, ЮЗ - юго-западный, З - западный, СЗ - северо-западный.
Видимость - горизонтальная дальность видимости в метрах или километрах. При видимости от 1 до 10 км при отсутствии осадков обычно наблюдается дымка, при ухудшении видимости до 1 км и менее - туман. В сухую погоду видимость может ухудшаться дымом, пылью или мглою.
Явления - указаны атмосферные явления, наблюдавшиеся в срок или в последний час перед сроком; фигурными скобками обозначены явления, наблюдавшиеся между сроками (за 1-3 часа до срока); квадратными скобками обозначены град или гололедные отложения с указанием их диаметра в мм.
Облачность - указаны через наклонную черту общая и нижняя облачность в баллах и высота нижней границы облаков в метрах; квадратными скобками обозначены формы облаков: Ci - перистые, Cs - перисто-слоистые, Cc - перисто-кучевые, Ac - высококучевые, As - высокослоистые, Sc - слоисто-кучевые, Ns - слоисто-дождевые, Cu - кучевые, Cb - кучево-дождевые. Подробнее классификацию облаков см. в Атласе облаков (PDF).
T - Температура воздуха - температура, измеренная на высоте 2 м над землей.
Td - Температура точки росы - температура, при понижении до которой содержащийся в воздухе водяной пар достигнет насыщения.
f - Относительная влажность воздуха - влажноcть воздуха, измеренная на высоте 2 м над землей.
Te - Эффективная температура - температура, которую ощущает одетый по сезону человек в тени. Характеристика душности погоды. При расчете учитывается влияние влажности воздуха и скорости ветра на теплоощущения человека.
Tes - Эффективная температура на солнце - температура, которую ощущает человек, с поправкой на солнечный нагрев. Характеристика знойности погоды. Зависит от высоты солнца над горизонтом, облачности и скорости ветра. Ночью, в пасмурную погоду, а также при ветре 12 м/с и более поправка равна нулю.
P - Атмосферное давление - приведенное к уровню моря атмосферное давление.
Po - Атмосферное давление - измеренное на уровне метеостанции атмосферное давление.
Tmin - Минимальная температура - минимум температуры воздуха на высоте 2 м над землей.
Tmax - Максимальная температура - максимум температуры воздуха на высоте 2 м над землей.
R - Количество осадков - Количество выпавших осадков за период времени, мм. При наведении курсора мыши на число - период времени, за который выпало указанное количество осадков.
R24 - Количество осадков - Количество выпавших осадков за 24 часа, мм.
S - Снежный покров - Высота снежного покрова, см. При наведении курсора мыши на число - состояние снежного покрова и степень покрытия местности в баллах.